www.pogodaiklimat.ru

Погода и климат >> Архив погоды >> Норвегия >> Мелсом


ПОГОДА в Мелсоме

  • Прогноз погоды в Мелсоме
  • Монитор погоды в Мелсоме

АРХИВ ПОГОДЫ в Мелсоме

Время (UTC), дата Ветер
(напр.,м/с)
 
Видим.   Явления Облачность Т
(С)
Тd
(С)
f
(%)
Тe
(С)
Тes
(С)
Комфортность P
(гПа)
Po
(гПа)
Тmin
(С)
Tmax
(С)
R
(мм)
R24
(мм)
S
(см)
07 9.09 С 3
{7}
н/о н/о +12.2 +9.4 83 +11 +11 1019.9 1016.7
08 9.09 С 3
{6}
н/о н/о +12.4 +9.6 83 +11 +11 1019.9 1016.7
09 9.09 С 3
{7}
н/о н/о +12.7 +9.4 80 +11 +11 1019.1 1016.0
10 9.09 СВ 4
{8}
н/о н/о +13.6 +9.8 78 +12 +12 1018.4 1015.3
11 9.09 СВ 3
{9}
н/о н/о +14.2 +9.4 73 +13 +13 1017.9 1014.8
12 9.09 СВ 4
{9}
н/о н/о +13.5 +9.6 77 +12 +12 1017.9 1014.8
13 9.09 С 3
{8}
н/о н/о +13.8 +9.7 76 +13 +13 1017.5 1014.4
14 9.09 С 3
{7}
н/о н/о +14.0 +9.8 76 +13 +13 1017.0 1013.9
15 9.09 С 3
{7}
н/о н/о +14.1 +10.1 77 +13 +13 1016.8 1013.7
16 9.09 С 3
{5}
н/о н/о +13.9 +10.3 79 +13 +13 1016.7 1013.6
17 9.09 С 2
{5}
н/о н/о +13.2 +10.9 86 +12 +12 1016.8 1013.7
18 9.09 С 2
{8}
н/о н/о +12.4 +11.3 93 +11 +11 1016.6 1013.5 +11.8 +14.8
19 9.09 С 2
{5}
н/о н/о +12.3 +11.5 95 +11 +11 1016.5 1013.4
20 9.09 С 2
{5}
н/о н/о +12.3 +11.5 95 +11 +11 1016.7 1013.6
21 9.09 С 1
{5}
н/о н/о +12.5 +11.6 94 +12 +12 1016.2 1013.1
22 9.09
{4}
н/о н/о +12.5 +11.6 94 1016.0 1012.9
23 9.09 С 2
{4}
н/о н/о +12.4 +11.6 95 +11 +11 1015.7 1012.6 0.2
00 10.09 С 2
{5}
н/о н/о +12.4 +11.6 95 +11 +11 1015.1 1012.0 0.1
01 10.09
{5}
н/о н/о +12.5 +11.7 95 1014.6 1011.5
02 10.09
{5}
н/о н/о +12.6 +11.8 95 1014.3 1011.2 0.1
03 10.09
{5}
н/о н/о +12.5 +11.9 96 1013.6 1010.5 0.3
04 10.09
{6}
н/о н/о +12.6 +12.0 96 1013.1 1010.0 0.5
05 10.09
{5}
н/о н/о +12.8 +12.2 96 1012.9 1009.8 0.1
06 10.09 С 2
{6}
н/о н/о +13.0 +12.4 96 +12 +12 1012.5 1009.4 +12.2 +13.0 2
07 10.09 С 2
{6}
н/о н/о +13.1 +12.5 96 +12 +12 1012.2 1009.1 3
08 10.09 С 3
{7}
н/о н/о +13.4 +12.6 95 +12 +12 1012.3 1009.2 0.9
09 10.09 С 2
{6}
н/о н/о +13.6 +13.0 96 +13 +13 1012.4 1009.3 2
10 10.09 С 2
{5}
н/о н/о +13.8 +13.0 95 +13 +13 1012.0 1008.9 0.7
11 10.09 С 2
{5}
н/о н/о +14.2 +13.3 94 +14 +14 1011.8 1008.7
12 10.09
{7}
н/о н/о +14.5 +13.6 94 1011.5 1008.4
13 10.09
{6}
н/о н/о +15.0 +13.9 93 1011.5 1008.4
14 10.09
{6}
н/о н/о +16.5 +14.5 88 1011.0 1007.9
15 10.09 С 4
{6}
н/о н/о +16.4 +14.1 86 +16 +16 1010.6 1007.5
16 10.09 С 3
{7}
н/о н/о +17.2 +14.3 83 +17 +17 1010.4 1007.3
17 10.09 С 2
{6}
н/о н/о +16.7 +14.4 86 +17 +17 1010.3 1007.2
18 10.09 С 1
{7}
н/о н/о +15.6 +14.0 90 +16 +16 1010.3 1007.2 +13.0 +17.3 7
19 10.09
{4}
н/о н/о +15.4 +13.8 90 1010.9 1007.8
20 10.09 С 2
{5}
н/о н/о +15.4 +13.6 89 +15 +15 1010.8 1007.7
21 10.09 С 1
{4}
н/о н/о +14.6 +13.3 92 +15 +15 1010.4 1007.3
22 10.09 С 1
{3}
н/о н/о +14.2 +13.1 93 +14 +14 1010.0 1006.9
23 10.09 С 1
{2}
н/о н/о +13.8 +12.9 94 +14 +14 1009.5 1006.4
00 11.09 С 1
{5}
н/о н/о +13.2 +12.4 95 +13 +13 1009.1 1006.0
01 11.09 С 1
{2}
н/о н/о +13.5 +12.9 96 +14 +14 1009.4 1006.3
02 11.09 штиль 0
{1}
н/о н/о +13.4 +12.8 96 +13 +13 1009.0 1005.9
03 11.09 Ю 1
{2}
н/о н/о +13.4 +12.8 96 +13 +13 1008.6 1005.5
04 11.09 штиль 0
{2}
н/о н/о +12.0 +11.4 96 +11 +11 1008.1 1005.0
05 11.09 Ю 2
{4}
н/о н/о +12.9 +12.4 97 +12 +12 1007.8 1004.7
06 11.09 Ю 2
{5}
н/о н/о +14.0 +13.4 96 +13 +13 1007.6 1004.5 +11.8 +15.6
07 11.09 ЮЗ 3
{10}
н/о н/о +14.2 +12.4 89 +13 +13 1007.5 1004.4
08 11.09 ЮЗ 3
{10}
н/о н/о +14.5 +8.5 67 +14 +14 1007.9 1004.8
09 11.09 ЮЗ 3
{9}
н/о н/о +14.8 +10.0 73 +14 +14 1008.1 1005.0
10 11.09 Ю 2
{8}
н/о н/о +14.3 +11.1 81 +14 +14 1007.9 1004.8
11 11.09 ЮЗ 4
{11}
н/о н/о +15.6 +11.4 76 +15 +15 1007.4 1004.3
12 11.09 ЮЗ 3
{11}
н/о н/о +14.5 +10.7 78 +14 +14 1007.2 1004.1 0.1
13 11.09 Ю 4
{10}
н/о н/о +13.0 +11.2 89 +11 +11 1007.1 1004.0 0.5
14 11.09 Ю 3
{8}
н/о н/о +13.2 +12.3 94 +12 +12 1006.2 1003.1 2
15 11.09 Ю 4
{10}
н/о н/о +13.4 +12.6 95 +12 +12 1005.4 1002.3 3
16 11.09 Ю 4
{11}
н/о н/о +14.2 +13.4 95 +13 +13 1004.4 1001.3 1
17 11.09 Ю 3
{9}
н/о н/о +14.5 +13.9 96 +13 +13 1004.1 1001.0 0.6
18 11.09 Ю 2
{11}
н/о н/о +14.7 +13.9 95 +14 +14 1003.9 1000.8 +13.0 +15.6 7
19 11.09 ЮЗ 2
{4}
н/о н/о +14.5 +13.9 96 +14 +14 1004.2 1001.1
20 11.09 ЮЗ 2
{4}
н/о н/о +14.1 +13.3 95 +14 +14 1004.8 1001.7
21 11.09 ЮЗ 2
{5}
н/о н/о +13.1 +12.3 95 +12 +12 1005.7 1002.6
22 11.09 ЮЗ 2
{4}
н/о н/о +12.7 +11.6 93 +12 +12 1006.6 1003.5
23 11.09 Ю 1
{3}
н/о н/о +11.7 +10.5 92 +11 +11 1007.7 1004.6
00 12.09 Ю 1
{5}
н/о н/о +11.2 +9.8 91 +11 +11 1008.1 1005.0
01 12.09 Ю 1
{4}
н/о н/о +10.3 +8.9 91 +10 +10 1009.3 1006.2
02 12.09 Ю 2
{4}
н/о н/о +10.2 +8.6 90 +9 +9 1009.8 1006.7
03 12.09 Ю 2
{4}
н/о н/о +10.4 +8.8 90 +9 +9 1010.2 1007.1
04 12.09 ЮЗ 2
{4}
н/о н/о +9.4 +8.3 93 +8 +8 1010.6 1007.4
05 12.09 ЮЗ 2
{4}
н/о н/о +10.1 +8.2 88 +9 +9 1011.4 1008.2
06 12.09 ЮЗ 2
{4}
н/о н/о +11.6 +9.2 85 +10 +10 1012.0 1008.9 +9.3 +14.7
07 12.09 ЮЗ 2
{7}
н/о н/о +12.9 +9.2 78 +12 +12 1012.7 1009.6
08 12.09 ЮЗ 2
{6}
н/о н/о +14.6 +10.4 76 +14 +14 1013.1 1010.0
09 12.09 ЮЗ 3
{8}
н/о н/о +15.4 +9.8 69 +15 +15 1013.7 1010.6
10 12.09 ЮЗ 3
{7}
н/о н/о +16.4 +9.8 65 +16 +16 1013.8 1010.7
11 12.09 ЮЗ 4
{10}
н/о н/о +16.1 +9.5 65 +15 +15 1013.8 1010.7
12 12.09 ЮЗ 2
{10}
н/о н/о +15.8 +9.7 67 +16 +16 1014.2 1011.1
13 12.09 ЮЗ 3
{7}
н/о н/о +16.1 +9.8 66 +16 +16 1013.8 1010.7
14 12.09 ЮЗ 3
{8}
н/о н/о +16.8 +9.5 62 +17 +17 1013.6 1010.5
15 12.09 ЮЗ 2
{9}
н/о н/о +16.3 +8.8 61 +16 +16 1013.8 1010.7
16 12.09 ЮЗ 2
{6}
н/о н/о +15.9 +9.1 64 +16 +16 1013.7 1010.6
17 12.09 ЮЗ 2
{6}
н/о н/о +15.1 +8.6 65 +15 +15 1013.7 1010.6
18 12.09 ЮЗ 2
{9}
н/о н/о +14.6 +9.0 69 +14 +14 1013.9 1010.8 +17.4
19 12.09 ЮЗ 3
{5}
н/о н/о +13.9 +8.7 71 +13 +13 1013.8 1010.7
20 12.09 ЮЗ 3
{7}
н/о н/о +13.0 +8.9 76 +12 +12 1013.6 1010.5
21 12.09 ЮЗ 3
{8}
н/о н/о +13.2 +8.7 74 +12 +12 1013.4 1010.3
22 12.09 ЮЗ 3
{8}
н/о н/о +12.8 +8.5 75 +11 +11 1013.2 1010.1
23 12.09 Ю 1
{6}
н/о н/о +12.0 +8.3 78 +12 +12 1013.2 1010.1
00 13.09 ЮЗ 2
{8}
н/о н/о +11.9 +8.0 77 +11 +11 1013.3 1010.2
01 13.09 ЮЗ 2
{5}
н/о н/о +11.1 +8.0 81 +10 +10 1013.4 1010.3
02 13.09 Ю 1
{4}
н/о н/о +9.3 +7.4 88 +9 +9 1014.0 1010.8
03 13.09 ЮЗ 1
{3}
н/о н/о +8.2 +6.8 91 +7 +7 1014.3 1011.1
04 13.09 З 3
{6}
н/о н/о +10.5 +5.3 70 +9 +9 1014.8 1011.6
05 13.09 З 2
{7}
н/о н/о +10.3 +4.5 67 +9 +9 1015.9 1012.7
06 13.09 З 2
{7}
н/о н/о +10.7 +4.6 66 +10 +10 1016.8 1013.6 +8.1 +14.6
07 13.09 З 1
{5}
н/о н/о +11.8 +5.2 64 +12 +12 1017.5 1014.3
08 13.09 З 2
{5}
н/о н/о +13.4 +4.8 56 +13 +13 1018.2 1015.1
09 13.09 З 3
{7}
н/о н/о +14.9 +4.3 49 +14 +14 1018.9 1015.8
10 13.09 З 3 н/о н/о +15.7 +3.8 45 +15 +15 1019.5 1016.4
11 13.09 З 3 н/о н/о +16.5 +4.2 44 +16 +16 1020.0 1016.9
12 13.09 З 3
{9}
н/о н/о +17.4 +3.3 39 +17 +17 1020.3 1017.2
13 13.09 З 4 н/о н/о +17.7 +3.6 39 +17 +17 1020.6 1017.5
14 13.09 СЗ 3 н/о н/о +17.7 +2.9 37 +18 +18 1020.8 1017.7
15 13.09 З 3 н/о н/о +16.9 +2.5 38 +17 +17 1021.3 1018.2
16 13.09 З 3 н/о н/о +16.3 +2.4 39 +16 +16 1021.6 1018.5
17 13.09 З 2 н/о н/о +14.8 +2.7 44 +15 +15 1021.7 1018.6
18 13.09 З 1
{10}
н/о н/о +13.3 +2.8 49 +14 +14 1022.7 1019.5 +18.0
19 13.09 ЮЗ 2 н/о н/о +10.8 +4.1 63 +10 +10 1023.3 1020.1
20 13.09 ЮЗ 2 н/о н/о +11.0 +3.6 60 +10 +10 1023.7 1020.5
21 13.09 ЮЗ 2 н/о н/о +10.3 +3.8 64 +9 +9 1024.2 1021.0
22 13.09 ЮЗ 2 н/о н/о +9.6 +3.4 65 +8 +8 1024.5 1021.3
23 13.09 ЮЗ 2 н/о н/о +8.4 +3.5 71 +7 +7 1024.8 1021.6
00 14.09 Ю 1
{6}
н/о н/о +8.2 +3.3 71 +8 +8 1025.1 1021.9
01 14.09 ЮЗ 2
{3}
н/о н/о +6.7 +3.3 79 +5 +5 1025.1 1021.9
02 14.09 ЮЗ 2
{3}
н/о н/о +7.3 +3.4 76 +5 +5 1025.4 1022.2
03 14.09 З 3 н/о н/о +10.0 +2.8 61 +8 +8 1024.9 1021.7
04 14.09 ЮЗ 2
{7}
н/о н/о +9.2 +3.6 68 +8 +8 1024.9 1021.7
05 14.09 З 2
{6}
н/о н/о +9.2 +3.6 68 +8 +8 1024.9 1021.7
06 14.09 ЮЗ 2
{7}
н/о н/о +9.7 +3.7 66 +8 +8 1025.3 1022.1 +6.6
07 14.09 З 2 н/о н/о +10.1 +4.3 67 +9 +9 1025.4 1022.2
09 14.09 З 3
{7}
н/о н/о +11.3 +4.8 64 +10 +10 1025.4 1022.2
10 14.09 ЮЗ 2
{7}
н/о н/о +12.0 +5.6 65 +11 +11 1024.8 1021.6
11 14.09 ЮЗ 2
{7}
н/о н/о +12.8 +6.4 65 +12 +12 1023.9 1020.7
12 14.09 ЮЗ 3 н/о н/о +13.7 +7.9 68 +13 +13 1022.9 1019.7
13 14.09 ЮЗ 3
{6}
н/о н/о +13.7 +8.8 72 +13 +13 1022.0 1018.9
14 14.09 ЮЗ 2
{6}
н/о н/о +14.0 +8.2 68 +14 +14 1020.9 1017.8
15 14.09 ЮЗ 3
{6}
н/о н/о +13.9 +8.1 68 +13 +13 1019.3 1016.2
16 14.09 ЮЗ 3
{8}
н/о н/о +14.2 +7.0 62 +13 +13 1017.5 1014.4
17 14.09 ЮЗ 3
{10}
н/о н/о +13.9 +6.5 61 +13 +13 1016.7 1013.6
18 14.09 ЮЗ 4
{11}
н/о н/о +13.7 +5.9 59 +12 +12 1015.4 1012.3
19 14.09 ЮЗ 4
{12}
н/о н/о +13.3 +6.4 63 +12 +12 1013.0 1009.9
20 14.09 ЮЗ 4
{11}
н/о н/о +13.0 +7.3 68 +11 +11 1012.1 1009.0
21 14.09 ЮЗ 5
{13}
н/о н/о +13.5 +8.4 71 +12 +12 1010.0 1006.9
22 14.09 ЮЗ 4
{12}
н/о н/о +13.7 +9.9 78 +12 +12 1008.0 1004.9
23 14.09 ЮЗ 4
{10}
н/о н/о +13.4 +10.6 83 +12 +12 1006.4 1003.3
00 15.09 ЮЗ 3
{13}
н/о н/о +13.0 +11.1 88 +12 +12 1005.0 1001.9 0.1
01 15.09 ЮЗ 3
{9}
н/о н/о +12.9 +11.1 89 +11 +11 1004.2 1001.1
02 15.09 ЮЗ 3
{7}
н/о н/о +12.7 +10.3 85 +11 +11 1002.8 999.7
03 15.09 ЮЗ 2
{6}
н/о н/о +11.8 +9.9 88 +11 +11 1002.0 998.9
04 15.09 ЮЗ 3
{6}
н/о н/о +12.4 +9.2 81 +11 +11 1000.7 997.6
05 15.09 ЮЗ 2
{8}
н/о н/о +11.2 +6.2 71 +10 +10 1000.8 997.7
06 15.09 ЮЗ 2
{9}
н/о н/о +11.3 +6.4 72 +10 +10 1000.5 997.4 +11.1 +13.9 0.1
07 15.09 З 2
{9}
н/о н/о +11.8 +5.9 67 +11 +11 1000.0 996.9
08 15.09 З 4
{9}
н/о н/о +12.6 +4.3 57 +11 +11 999.6 996.5
09 15.09 З 3
{12}
н/о н/о +14.2 +1.8 43 +13 +13 999.9 996.8
10 15.09 З 5
{14}
н/о н/о +14.8 +1.4 40 +14 +14 999.8 996.7
11 15.09 З 4
{11}
н/о н/о +15.8 +3.3 43 +15 +15 999.5 996.4
12 15.09 З 3
{14}
н/о н/о +15.5 +2.7 42 +15 +15 999.2 996.1
13 15.09 З 4
{11}
н/о н/о +16.4 +2.8 40 +16 +16 999.0 996.0
14 15.09 З 4
{14}
н/о н/о +17.2 +3.5 40 +17 +17 998.6 995.6
15 15.09 З 5
{13}
н/о н/о +16.9 +3.2 40 +16 +16 998.3 995.3
16 15.09 З 5
{12}
н/о н/о +16.2 +3.0 41 +15 +15 998.2 995.2
17 15.09 З 4
{14}
н/о н/о +15.0 +3.2 45 +14 +14 998.6 995.5
18 15.09 З 3
{14}
н/о н/о +14.1 +3.6 49 +13 +13 999.2 996.1 +11.2 +17.2
19 15.09 ЮЗ 2
{8}
н/о н/о +12.1 +3.9 57 +11 +11 1000.1 997.0
20 15.09 З 3
{8}
н/о н/о +13.0 +2.6 49 +12 +12 1001.1 998.0
21 15.09 З 3
{11}
н/о н/о +12.9 +1.9 47 +12 +12 1001.7 998.6
22 15.09 З 1
{8}
н/о н/о +11.9 +2.1 51 +12 +12 1003.2 1000.1
23 15.09 З 4
{7}
н/о н/о +12.4 +0.2 43 +11 +11 1004.2 1001.1
00 16.09 В 1
{11}
н/о н/о +10.0 -0.2 49 +10 +10 1004.9 1001.8
01 16.09 З 2
{4}
н/о н/о +10.8 -1.6 42 +10 +10 1005.7 1002.6
02 16.09 ЮЗ 1
{4}
н/о н/о +7.9 -0.5 55 +8 +8 1006.3 1003.1
03 16.09 Ю 1
{3}
н/о н/о +7.6 -0.3 57 +7 +7 1006.8 1003.6
04 16.09 ЮЗ 3
{7}
н/о н/о +8.5 +0.3 56 +6 +6 1006.7 1003.5
05 16.09 З 3
{7}
н/о н/о +8.4 +0.4 57 +6 +6 1006.8 1003.6

 

Местоположение метеостанции Мелсом (Норвегия): широта 59.23 долгота 10.35 высота над уровнем моря 26 м.

В архиве по умолчанию представлена погода в Мелсоме за последнюю неделю. Архивные данные за месяц целиком и за предыдущие месяцы, начиная с января 2011 года, Вы можете получить, выбрав интересующий диапазон дат из раскрывающегося списка и нажав кнопку "Ввод!".


*Определитесь, кто Вы:
робот инопланетянин человек

Внимание! Время в таблицах - всемирное. Для получения местного времени необходимо прибавить поправку, которая равна 1 ч.

Смотрите также архив погоды в соседних городах и на ближайших метеорологических станциях:

Погода на Маяке Ferder (Норвегия) (25 км)
Погода на Гуллхолмене (Норвегия) (26 км)
Погода на Маяке Stromtangen (Норвегия) (29 км)
Погода в Рюгге (Норвегия) (31 км)
Погода на Маяке Svenner (Норвегия) (31 км)
Погода в Порсгрунне (Норвегия) (42 км)
Погода в Санде-Галлеберге (Норвегия) (44 км)
Погода в Сарпсборге (Норвегия) (44 км)
Погода в Нордкостере (Швеция) (52 км)
Погода в Асе (Норвегия) (54 км)

Пояснения к столбцам:

Ветер - указаны скорость ветра в м/с - средняя за 10 мин, порывы в срок и между сроками (в фигурных скобках) и направление, откуда дует ветер: С - северный, СВ - северо-восточный, В - восточный, ЮВ - юго-восточный, Ю - южный, ЮЗ - юго-западный, З - западный, СЗ - северо-западный.
Видимость - горизонтальная дальность видимости в метрах или километрах. При видимости от 1 до 10 км при отсутствии осадков обычно наблюдается дымка, при ухудшении видимости до 1 км и менее - туман. В сухую погоду видимость может ухудшаться дымом, пылью или мглою.
Явления - указаны атмосферные явления, наблюдавшиеся в срок или в последний час перед сроком; фигурными скобками обозначены явления, наблюдавшиеся между сроками (за 1-3 часа до срока); квадратными скобками обозначены град или гололедные отложения с указанием их диаметра в мм.
Облачность - указаны через наклонную черту общая и нижняя облачность в баллах и высота нижней границы облаков в метрах; квадратными скобками обозначены формы облаков: Ci - перистые, Cs - перисто-слоистые, Cc - перисто-кучевые, Ac - высококучевые, As - высокослоистые, Sc - слоисто-кучевые, Ns - слоисто-дождевые, Cu - кучевые, Cb - кучево-дождевые. Подробнее классификацию облаков см. в Атласе облаков (PDF).
T - Температура воздуха - температура, измеренная на высоте 2 м над землей.
Td - Температура точки росы - температура, при понижении до которой содержащийся в воздухе водяной пар достигнет насыщения.
f - Относительная влажность воздуха - влажноcть воздуха, измеренная на высоте 2 м над землей.
Te - Эффективная температура - температура, которую ощущает одетый по сезону человек в тени. Характеристика душности погоды. При расчете учитывается влияние влажности воздуха и скорости ветра на теплоощущения человека.
Tes - Эффективная температура на солнце - температура, которую ощущает человек, с поправкой на солнечный нагрев. Характеристика знойности погоды. Зависит от высоты солнца над горизонтом, облачности и скорости ветра. Ночью, в пасмурную погоду, а также при ветре 12 м/с и более поправка равна нулю.
P - Атмосферное давление - приведенное к уровню моря атмосферное давление.
Po - Атмосферное давление - измеренное на уровне метеостанции атмосферное давление.
Tmin - Минимальная температура - минимум температуры воздуха на высоте 2 м над землей.
Tmax - Максимальная температура - максимум температуры воздуха на высоте 2 м над землей.
R - Количество осадков - Количество выпавших осадков за период времени, мм. При наведении курсора мыши на число - период времени, за который выпало указанное количество осадков.
R24 - Количество осадков - Количество выпавших осадков за 24 часа, мм.
S - Снежный покров - Высота снежного покрова, см. При наведении курсора мыши на число - состояние снежного покрова и степень покрытия местности в баллах.